Location: *
(32.8667°N, 13.1833°E)
Time: 20:01:06
(UTC+00:00)

Cosmos 1892 - Pass Details

Date: 18 July 2019
Orbit: 504 x 526 km, 82.5° (Epoch: 16 August)

Event Time Altitude Azimuth Distance (km) Brightness Sun altitude
Exits shadow 20:29:24 21° 233° (SW) 1,220 4.6 -23.4°
Maximum altitude 20:31:16 32° 280° (W) 919 4.4 -23.7°
Drops below altitude 10° 20:34:44 10° 344° (NNW) 1,752 6.2 -24.2°
Sets 20:37:02 0° 355° (N) 2,639 7.1 -24.5°
